Location: Joplin, MO
(37.0842°N, 94.5133°W)
Time: 13:43:27
(UTC+02:00)

Vanguard 1 Rocket - Visible Passes

Search period start: 30 March 2023 00:00
Search period end: 09 April 2023 00:00
Orbit: 652 x 4223 km, 34.3° (Epoch: 29 March)

Date Brightness Start Highest point End Pass type
(mag) Time Alt. Az. Time Alt. Az. Time Alt. Az.
30 Mar 10.4 04:30:12 10° SW 04:55:14 56° SSE 05:06:07 34° E visible
30 Mar 10.0 07:01:39 10° WSW 07:23:29 69° SW 07:23:29 69° SW visible
30 Mar 9.9 09:36:42 10° W 10:03:05 25° ESE 10:05:39 10° ESE visible
30 Mar 9.0 12:20:23 31° SW 12:21:39 31° SW 12:27:58 10° SSE visible
31 Mar 10.8 03:17:31 10° SSW 03:40:35 44° SE 03:59:39 12° E visible
31 Mar 10.0 05:46:02 10° WSW 06:12:07 72° SSE 06:17:00 60° ESE visible
31 Mar 10.4 08:20:10 10° W 08:56:09 - E 08:34:21 44° W visible
31 Mar 9.1 11:13:28 41° S 11:13:28 41° S 11:18:31 10° SE visible
31 Mar 9.8 13:32:46 10° WSW 13:34:00 10° SW 13:35:09 10° SW visible
01 Apr 10.4 04:31:36 10° SW 04:57:12 63° SSE 05:10:23 29° E visible
01 Apr 9.8 07:03:43 10° WSW 07:27:43 78° SW 07:27:43 78° SW visible
01 Apr 10.1 09:38:54 10° W 10:06:38 19° ESE 10:08:18 10° ESE visible
01 Apr 9.3 12:23:58 25° SW 12:23:58 25° SW 12:29:50 10° S visible
02 Apr 10.7 03:18:33 10° SW 03:42:17 51° SE 04:03:20 10° E visible
02 Apr 10.0 05:47:56 10° WSW 06:14:21 77° SSE 06:20:57 54° E visible
02 Apr 10.3 08:22:21 10° W 08:59:54 - ESE 08:38:16 49° W visible
02 Apr 9.4 11:17:14 29° SSE 11:17:14 29° SSE 11:20:51 10° SSE visible
03 Apr 10.4 04:33:16 10° SW 04:59:12 69° SSE 05:14:01 26° E visible
03 Apr 9.8 07:05:53 10° W 07:31:20 82° S 07:31:20 82° S visible
03 Apr 10.4 09:41:05 10° W 10:10:34 11° SE 10:10:52 10° SE visible
03 Apr 9.7 12:27:55 18° SSW 12:27:55 18° SSW 12:31:17 10° S visible
04 Apr 10.7 03:19:56 10° SW 03:44:01 58° SSE 04:06:00 10° ENE visible
04 Apr 10.1 05:50:00 10° WSW 06:16:37 80° S 06:24:15 51° E visible
04 Apr 10.2 08:24:31 10° W 08:41:33 52° W 08:41:33 52° W visible
04 Apr 9.9 11:21:19 17° SSE 11:21:19 17° SSE 11:22:58 10° SSE visible
05 Apr 10.4 04:35:09 10° WSW 05:01:14 74° SSE 05:17:02 25° E visible
05 Apr 9.8 07:08:04 10° W 07:33:50 81° S 07:34:19 81° S visible
05 Apr 10.7 09:43:16 10° WNW 10:14:45 - SE 09:51:36 27° W visible
06 Apr 10.6 03:21:35 10° SW 03:45:48 64° SSE 04:08:34 10° E visible
06 Apr 10.1 05:52:10 10° W 06:18:54 82° S 06:27:00 50° E visible
06 Apr 10.2 08:26:41 10° W 08:44:15 53° W 08:44:15 53° W visible
06 Apr10.411:25:33SSE11:25:33SSE11:01:31Wvisible
07 Apr 10.4 04:37:14 10° WSW 05:03:20 78° SSE 05:19:33 25° E visible
07 Apr 9.8 07:10:17 10° W 07:36:10 79° SSW 07:36:48 79° S visible
07 Apr 10.8 09:45:31 10° WNW 09:54:04 26° W 09:54:04 26° W visible
08 Apr 10.6 03:23:28 10° SW 03:47:40 70° SSE 04:11:05 10° E visible
08 Apr 10.1 05:54:25 10° W 06:21:11 83° S 06:29:18 51° ESE visible
08 Apr 10.2 08:28:51 10° W 08:46:33 51° WSW 08:46:33 51° WSW visible
